Weather History for Central Park, NY

Change the Weather History Date:

Monday, September 30, 2013

  Actual Average Record
Temperature  
Mean Temperature 66 °F 62 °F  
Max Temperature 75 °F 70 °F 89 °F (1986)
Min Temperature 56 °F 55 °F 39 °F (1912)
Degree Days  
Heating Degree Days 0 4  
Month to date heating degree days 36 42  
Since 1 July heating degree days 36 45  
Cooling Degree Days 1 2  
Month to date cooling degree days 132 133  
Year to date cooling degree days 1225 1087  
Growing Degree Days 14 (Base 50)    
Moisture  
Dew Point 51 °F    
Average Humidity 62    
Maximum Humidity 86    
Minimum Humidity 38    
Precipitation  
Precipitation 0.00 in 0.16 in 2.64 in (1983)
Month to date precipitation 2.95 4.28  
Year to date precipitation 37.96 37.52  
Snow  
Snow 0.00 in 0.00 in 0.00 in (2002)
Month to date snowfall 0.0 0.0  
Since 1 July snowfall 0.0 0.0  
Snow Depth 0.00 in    
Sea Level Pressure  
Sea Level Pressure 30.04 in    
Wind  
Wind Speed 3 mph (North)    
Max Wind Speed 12 mph    
Max Gust Speed 17 mph    
Visibility 10 miles    
Events      
T = Trace of Precipitation, MM = Missing Value Source: NWS Daily Summary

Daily Weather History Graph

Daily Weather History Graph

Search for Another Location

Airport:

Trip Planner

Search our weather history database for the weather conditions in past years. The results will help you decide how hot, cold, wet, or windy it might be!

Date:

Astronomy

Sep. 30, 2013 Rise Set
Actual Time 6:51 AM EDT 6:39 PM EDT
Civil Twilight 6:24 AM EDT 7:06 PM EDT
Nautical Twilight 5:52 AM EDT 7:38 PM EDT
Astronomical Twilight 5:20 AM EDT 8:10 PM EDT
Moon 2:24 AM EDT (9/30) 4:09 PM EDT (9/30)
Length of Visible Light 12h 42m
Length of Day
11h 47m
Waning Crescent, 19% of the Moon is Illuminated
Sep 30
Waning Crescent
Oct 4
New
Oct 11
First Quarter
Oct 18
Full
Oct 26
Last Quarter

Hourly Weather History & Observations

Time (EDT) Temp. Dew Point Humidity Pressure Visibility Wind Dir Wind Speed Gust Speed Precip Events Conditions
12:51 AM 57.9 °F 51.1 °F 78% 30.09 in 10.0 mi Calm Calm - N/A   Clear
1:51 AM 57.9 °F 51.1 °F 78% 30.09 in 10.0 mi Calm Calm - N/A   Clear
2:51 AM 57.0 °F 52.0 °F 83% 30.08 in 10.0 mi Calm Calm - N/A   Clear
3:51 AM 57.0 °F 53.1 °F 87% 30.07 in 10.0 mi NE 3.5 mph - N/A   Clear
4:51 AM 57.0 °F 53.1 °F 87% 30.06 in 10.0 mi NNE 3.5 mph - N/A   Clear
5:51 AM 57.0 °F 53.1 °F 87% 30.07 in 10.0 mi NW 3.5 mph - N/A   Clear
6:51 AM 55.9 °F 52.0 °F 87% 30.09 in 8.0 mi Calm Calm - N/A   Clear
7:51 AM 57.0 °F 53.1 °F 87% 30.08 in 7.0 mi Calm Calm - N/A   Clear
8:51 AM 61.0 °F 52.0 °F 72% 30.08 in 10.0 mi Variable 3.5 mph - N/A   Clear
9:51 AM 63.0 °F 50.0 °F 63% 30.08 in 10.0 mi ENE 4.6 mph - N/A   Clear
10:51 AM 64.9 °F 48.0 °F 54% 30.07 in 10.0 mi Calm Calm - N/A   Clear
11:51 AM 68.0 °F 46.9 °F 47% 30.05 in 9.0 mi Variable 3.5 mph - N/A   Clear
12:51 PM 72.0 °F 48.9 °F 44% 30.02 in 10.0 mi Variable 4.6 mph - N/A   Clear
1:51 PM 73.0 °F 48.9 °F 42% 30.01 in 10.0 mi Variable 5.8 mph - N/A   Partly Cloudy
2:51 PM 73.9 °F 48.0 °F 40% 30.00 in 10.0 mi NE 4.6 mph - N/A   Scattered Clouds
3:51 PM 73.0 °F 46.0 °F 38% 29.99 in 10.0 mi NNW 4.6 mph - N/A   Scattered Clouds
4:51 PM 71.1 °F 51.1 °F 49% 29.98 in 10.0 mi Variable 6.9 mph - N/A   Partly Cloudy
5:51 PM 68.0 °F 52.0 °F 56% 29.98 in 10.0 mi Calm Calm - N/A   Clear
6:51 PM 66.9 °F 51.1 °F 57% 29.99 in 10.0 mi Variable 3.5 mph - N/A   Clear
7:51 PM 64.9 °F 53.1 °F 65% 29.99 in 10.0 mi Variable 3.5 mph - N/A   Clear
8:51 PM 64.0 °F 53.1 °F 67% 30.00 in 10.0 mi Calm Calm - N/A   Clear
9:51 PM 64.0 °F 51.1 °F 63% 30.01 in 10.0 mi Variable 5.8 mph - N/A   Clear
10:51 PM 64.0 °F 52.0 °F 65% 30.01 in 10.0 mi Variable 5.8 mph - N/A   Clear
11:51 PM 62.1 °F 52.0 °F 70% 30.00 in 10.0 mi West 5.8 mph - N/A   Clear